sat.trackr.live / text

‹ back to catalog

STARLINK-30613

NORAD 58077 · 2023-160C

PAYLOAD ACTIVE UNKNOWN

§ Identity

Operator
Country
US
Launch date
2023-10-18
Launch site
AFETR
Launch vehicle
Mass (kg)
RCS (m²)

Purposes: comms

External: N2YO · Heavens-Above · Gunter

§ Orbital elements

Epoch: 2026-09-20T17:12:13.619520Z

Period
94.27 min
Inclination
43.0012°
Eccentricity
0.0000985
Mean motion
15.27576944 rev/d
Perigee alt
482.4 km
Apogee alt
483.7 km
Semi-major
6,861.2 km
B*
1.4597e-5
RAAN
56.4015°
Arg perigee
265.3363°
Mean anomaly
94.7377°
Rev number
16,278

§ Raw data

STARLINK-306131 58077U 23160C   26263.71682430  .00000140  00000+0  14597-4 0  99932 58077  43.0012  56.4015 0000985 265.3363  94.7377 15.27576944162781

JSON: /api/v1/satellites/58077 · /tle

For live sub-satellite position, see the globe view (requires WebGL).

§ Visibility from observer

Set your observer location to see the next 7 days of passes ≥ 10°. The values pass through the URL so the page stays shareable.

No JS? Fill the form by hand. The geolocation button needs JavaScript.